Nome, AK

3:58 PM AKST on January 18, 2017 (GMT -0900)
Nome

Weather History for PAOM - August, 2014

Change the Weather History Date:

Saturday, August 9, 2014

  Actual Average Record
Temperature  
Mean Temperature 64 °F 51 °F  
Max Temperature 71 °F 57 °F 73 °F (1978)
Min Temperature 56 °F 45 °F 30 °F (1928)
Degree Days  
Heating Degree Days 1 14  
Month to date heating degree days 50 126  
Since 1 June heating degree days 1041 1042  
Since 1 July heating degree days 473 526  
Cooling Degree Days 0    
Month to date cooling degree days 0  
Year to date cooling degree days 2  
Since 1 June cooling degree days 2  
Growing Degree Days 13 (Base 50)    
Moisture  
Dew Point 51 °F    
Average Humidity 0    
Maximum Humidity 0    
Minimum Humidity 0    
Precipitation  
Precipitation 0.01 in 0.11 in 2.36 in (1956)
Month to date precipitation 0.13 0.95  
Year to date precipitation 7.44 8.18  
Snow  
Snow 0.00 in 0.00 in 0.00 in (2016)
Month to date snowfall 0.0 0.0  
Since 1 June snowfall 0.0 0.3  
Since 1 July snowfall 0.0 0.0  
Snow Depth 0.00 in    
Sea Level Pressure  
Sea Level Pressure 29.57 in    
Wind  
Wind Speed 8 mph (NNE)    
Max Wind Speed 14 mph    
Max Gust Speed 18 mph    
Visibility 10 miles    
Events Rain , Thunderstorm    
T = Trace of Precipitation, MM = Missing Value Source: NWS Daily Summary

Daily Weather History Graph

Daily Weather History Graph

Search for Another Location

Airport or City:

Trip Planner

Search our weather history database for the weather conditions in past years. The results will help you decide how hot, cold, wet, or windy it might be!

Date:

Astronomy

Aug. 09, 2014 Rise Set
Actual Time 6:31 AM AKDT 11:40 PM AKDT
Civil Twilight 5:16 AM AKDT 12:53 AM AKDT
Nautical Twilight 3:39 AM AKDT 2:34 AM AKDT
Astronomical Twilight Sun does not rise Sun does not rise
Moon 10:32 PM AKDT (8/9) 5:30 AM AKDT (8/9)
Length of Visible Light 19h 37m
Length of Day
17h 08m
Waxing Gibbous, 99% of the Moon is Illuminated
Aug 9
Waxing Gibbous
Aug 10
Full
Aug 17
Last Quarter
Aug 25
New
Sep 2
First Quarter

Hourly Weather History & Observations

Time (AKDT) Temp. Dew Point Humidity Pressure Visibility Wind Dir Wind Speed Gust Speed Precip Events Conditions
12:53 AM 61.0 °F 52.0 °F 72% 29.51 in 10.0 mi NE 13.8 mph - N/A   Overcast
1:53 AM 61.0 °F 52.0 °F 72% 29.51 in 10.0 mi NE 10.4 mph - 0.00 in   Overcast
2:53 AM 62.1 °F 52.0 °F 70% 29.52 in 10.0 mi NE 8.1 mph - N/A   Overcast
3:53 AM 62.1 °F 51.1 °F 67% 29.53 in 10.0 mi ENE 11.5 mph - N/A   Overcast
4:53 AM 60.1 °F 51.1 °F 72% 29.54 in 10.0 mi ENE 8.1 mph - N/A   Overcast
5:53 AM 57.9 °F 52.0 °F 81% 29.55 in 10.0 mi NE 6.9 mph - N/A   Overcast
6:53 AM 57.9 °F 51.1 °F 78% 29.55 in 10.0 mi North 3.5 mph - N/A   Overcast
7:53 AM 57.9 °F 51.1 °F 78% 29.55 in 10.0 mi North 8.1 mph - 0.00 in Rain Light Rain
8:53 AM 61.0 °F 51.1 °F 70% 29.56 in 10.0 mi North 9.2 mph - 0.00 in   Overcast
9:53 AM 64.0 °F 51.1 °F 63% 29.57 in 10.0 mi NNE 10.4 mph - 0.00 in   Overcast
10:53 AM 64.9 °F 52.0 °F 63% 29.57 in 10.0 mi NE 10.4 mph - N/A   Overcast
11:53 AM 66.0 °F 51.1 °F 59% 29.58 in 10.0 mi East 11.5 mph - N/A   Overcast
12:53 PM 68.0 °F 50.0 °F 52% 29.59 in 10.0 mi ENE 10.4 mph - N/A   Overcast
1:53 PM 69.1 °F 48.9 °F 49% 29.60 in 10.0 mi NE 9.2 mph - N/A   Overcast
2:53 PM 69.1 °F 48.0 °F 47% 29.59 in 10.0 mi Variable 4.6 mph - N/A   Overcast
3:53 PM 66.9 °F 46.9 °F 49% 29.59 in 10.0 mi SSW 6.9 mph - N/A   Overcast
4:53 PM 69.1 °F 48.0 °F 47% 29.59 in 10.0 mi SW 5.8 mph - N/A   Overcast
5:53 PM 68.0 °F 50.0 °F 52% 29.58 in 10.0 mi West 11.5 mph - N/A   Overcast
6:53 PM 66.0 °F 52.0 °F 60% 29.58 in 10.0 mi WSW 6.9 mph - 0.00 in   Overcast
7:53 PM 66.9 °F 50.0 °F 54% 29.59 in 10.0 mi West 6.9 mph - N/A   Overcast
8:47 PM 66.2 °F 51.8 °F 60% 29.58 in 10.0 mi WNW 8.1 mph - N/A Thunderstorm Thunderstorm
8:53 PM 66.9 °F 53.1 °F 61% 29.58 in 10.0 mi NW 6.9 mph - N/A Thunderstorm Thunderstorm
9:30 PM 66.9 °F 53.1 °F 61% 29.59 in 10.0 mi ESE 9.2 mph - N/A   Overcast
9:53 PM 64.0 °F 54.0 °F 70% 29.59 in 9.0 mi NNE 3.5 mph - 0.01 in Rain Light Rain
10:53 PM 61.0 °F 55.9 °F 83% 29.59 in 10.0 mi North 4.6 mph - 0.00 in   Overcast
11:53 PM 57.9 °F 53.1 °F 84% 29.60 in 10.0 mi North 5.8 mph - N/A   Mostly Cloudy